AI5BL Weather Reports


Display with metric or nautical units.
time (UTC)temp
F
wind
direction
speed
MPH
gust
MPH
rain 1hr
in
rain 24hr
in
rain mn
in
humidity
%
barometer
mb
20260504050409 52 109 0.0 0.0 0.00 0.00 0.00 96 1021.0
20260504045907 53 109 0.0 0.0 0.00 0.00 0.00 96 1020.8
20260504045403 53 109 0.0 0.0 0.00 0.00 0.00 97 1020.8
20260504044859 53 109 0.0 0.0 0.00 0.00 0.00 97 1020.9
20260504044356 52 109 0.0 0.0 0.00 0.00 0.00 96 1021.0
20260504043854 52 109 0.0 0.0 0.00 0.00 0.00 96 1020.8
20260504043350 53 109 0.0 0.0 0.00 0.00 0.00 96 1021.1
20260504042848 53 109 0.0 0.0 0.00 0.00 0.00 96 1020.9
20260504042344 54 109 0.0 0.0 0.00 0.00 0.00 96 1020.9
20260504041840 54 109 0.0 0.0 0.00 0.00 0.00 96 1020.9
20260504041336 53 109 0.0 0.0 0.00 0.00 0.00 96 1021.3
20260504040833 53 109 0.0 0.0 0.00 0.00 0.00 96 1020.9
20260504040330 53 109 0.0 0.0 0.00 0.00 0.00 95 1021.2
20260504035826 53 109 0.0 0.0 0.00 0.00 0.00 94 1021.1
20260504035324 54 109 0.0 0.0 0.00 0.00 0.00 94 1021.1
20260504034820 55 109 0.0 0.0 0.00 0.00 0.00 94 1021.1
20260504034318 54 109 0.0 0.0 0.00 0.00 0.00 95 1021.1
20260504033815 53 109 0.0 0.0 0.00 0.00 0.00 94 1021.0
20260504033313 54 108 0.0 0.0 0.00 0.00 0.00 93 1021.2
20260504032809 55 109 0.0 0.0 0.00 0.00 0.00 92 1021.0
20260504032307 55 109 0.0 0.0 0.00 0.00 0.00 93 1021.0
20260504031804 55 109 0.0 0.0 0.00 0.00 0.00 94 1021.1
20260504031301 55 109 0.0 0.0 0.00 0.00 0.00 92 1021.1
20260504030756 56 109 0.0 0.0 0.00 0.00 0.00 92 1021.1
20260504030254 56 109 0.0 0.0 0.00 0.00 0.00 90 1020.9
20260504025750 57 109 0.0 0.0 0.00 0.00 0.00 90 1020.9
20260504025247 57 109 0.0 0.0 0.00 0.00 0.00 90 1021.0
20260504024744 57 109 0.0 0.0 0.00 0.00 0.00 91 1021.0
20260504024240 57 109 0.0 0.0 0.00 0.00 0.00 93 1021.0
20260504023737 56 109 0.0 0.0 0.00 0.00 0.00 93 1020.9
20260504023233 56 108 0.0 0.0 0.00 0.00 0.00 93 1020.9
20260504022730 56 108 0.0 0.0 0.00 0.00 0.00 93 1021.0
20260504022226 56 109 0.0 0.0 0.00 0.00 0.00 93 1020.8
20260504021723 56 108 0.0 0.0 0.00 0.00 0.00 93 1020.7
20260504021220 57 104 0.0 0.0 0.00 0.00 0.00 91 1020.7
20260504020718 58 105 0.0 0.0 0.00 0.00 0.00 90 1020.6
20260504020214 59 104 0.0 0.0 0.00 0.00 0.00 87 1020.6
20260504015711 59 106 0.0 0.0 0.00 0.00 0.00 86 1020.6
20260504015207 59 105 0.0 0.0 0.00 0.00 0.00 86 1020.6
20260504014702 59 105 0.0 0.0 0.00 0.00 0.00 87 1020.5
20260504014200 58 104 0.0 0.0 0.00 0.00 0.00 87 1020.3
20260504013657 59 94 0.0 0.0 0.00 0.00 0.00 86 1020.2
20260504013154 59 96 0.0 0.0 0.00 0.00 0.00 85 1020.2
20260504012651 60 96 0.0 0.0 0.00 0.00 0.00 84 1020.2
20260504012149 60 96 0.0 0.0 0.00 0.00 0.00 83 1020.2
20260504011645 60 96 0.0 0.0 0.00 0.00 0.00 81 1020.1
20260504011142 62 96 0.0 0.0 0.00 0.00 0.00 79 1020.2
20260504010638 62 96 0.0 0.0 0.00 0.00 0.00 75 1019.9
20260504010134 62 96 0.0 0.0 0.00 0.00 0.00 77 1019.8
20260504005631 63 96 0.0 0.0 0.00 0.00 0.00 74 1019.9
20260504005127 63 96 0.0 0.0 0.00 0.00 0.00 72 1019.9
20260504004626 64 96 0.0 0.0 0.00 0.00 0.00 70 1019.8
20260504004123 64 96 0.0 0.0 0.00 0.00 0.00 69 1019.7
20260504003619 65 96 0.0 0.0 0.00 0.00 0.00 68 1019.9
20260504003116 65 96 0.0 0.0 0.00 0.00 0.00 63 1019.7
20260504002613 66 96 0.0 0.0 0.00 0.00 0.00 61 1019.7
20260504002110 66 96 0.0 0.0 0.00 0.00 0.00 59 1019.7
20260504001608 66 96 0.0 0.0 0.00 0.00 0.00 62 1019.8
20260504001103 67 96 0.0 0.0 0.00 0.00 0.00 60 1019.7
20260504000601 67 96 0.0 0.0 0.00 0.00 0.00 58 1019.6
20260504000058 68 96 0.0 0.0 0.00 0.00 0.00 58 1019.6
20260503235557 68 96 0.0 0.0 0.00 0.00 0.00 56 1019.7
20260503235053 68 96 0.0 0.0 0.00 0.00 0.00 57 1019.8
20260503234551 69 96 0.0 0.0 0.00 0.00 0.00 53 1019.7
20260503234048 69 96 0.0 0.0 0.00 0.00 0.00 53 1019.8
20260503233544 69 96 0.0 0.0 0.00 0.00 0.00 53 1019.9
20260503233040 69 96 0.0 0.0 0.00 0.00 0.00 54 1019.9
20260503232538 70 103 0.0 0.0 0.00 0.00 0.00 51 1020.0
20260503232035 70 100 0.0 1.0 0.00 0.00 0.00 53 1020.0
20260503231533 70 101 0.0 0.0 0.00 0.00 0.00 59 1020.0
20260503231029 71 108 0.0 0.0 0.00 0.00 0.00 50 1019.8
20260503230526 71 106 0.0 0.0 0.00 0.00 0.00 49 1019.9
20260503230024 71 107 0.0 1.0 0.00 0.00 0.00 47 1019.8
20260503225520 70 94 0.0 0.0 0.00 0.00 0.00 50 1019.6
20260503225015 71 106 0.0 1.0 0.00 0.00 0.00 59 1019.9
20260503224513 71 106 0.0 0.0 0.00 0.00 0.00 60 1019.7
20260503224006 71 102 0.0 0.0 0.00 0.00 0.00 55 1019.7
20260503223503 71 125 1.0 1.0 0.00 0.00 0.00 50 1020.0
20260503222958 73 106 0.0 2.0 0.00 0.00 0.00 45 1020.0
20260503222457 73 99 0.0 0.0 0.00 0.00 0.00 44 1020.0
20260503221954 73 72 0.0 1.0 0.00 0.00 0.00 40 1020.0
20260503221452 73 95 0.0 0.0 0.00 0.00 0.00 41 1020.0
20260503220949 73 85 0.0 0.0 0.00 0.00 0.00 44 1020.1
20260503220445 73 102 0.0 1.0 0.00 0.00 0.00 48 1020.3
20260503215943 73 31 1.0 2.0 0.00 0.00 0.00 44 1020.2
20260503215439 73 76 0.0 1.0 0.00 0.00 0.00 42 1020.3
20260503214937 73 110 0.0 2.0 0.00 0.00 0.00 41 1020.3
20260503214435 72 122 1.0 1.0 0.00 0.00 0.00 60 1020.5
20260503213932 73 132 0.0 1.0 0.00 0.00 0.00 52 1020.6
20260503213430 72 101 0.0 0.0 0.00 0.00 0.00 55 1020.4
20260503212926 73 121 1.0 1.0 0.00 0.00 0.00 51 1020.6
20260503212423 73 66 0.0 1.0 0.00 0.00 0.00 45 1020.7
20260503211921 73 123 1.0 2.0 0.00 0.00 0.00 42 1020.6
20260503211417 73 117 0.0 1.0 0.00 0.00 0.00 42 1020.9
20260503210913 74 77 0.0 0.0 0.00 0.00 0.00 46 1020.9
20260503210410 75 353 1.0 4.0 0.00 0.00 0.00 44 1020.9
20260503205904 74 95 0.0 1.0 0.00 0.00 0.00 47 1020.9
20260503205402 74 84 0.0 0.0 0.00 0.00 0.00 42 1020.9
20260503204858 74 107 0.0 1.0 0.00 0.00 0.00 48 1021.0
20260503204355 74 93 0.0 1.0 0.00 0.00 0.00 43 1021.0
20260503203852 75 87 0.0 1.0 0.00 0.00 0.00 42 1021.2
20260503203350 75 97 0.0 1.0 0.00 0.00 0.00 43 1021.2
20260503202846 74 26 1.0 2.0 0.00 0.00 0.00 48 1021.3
20260503202345 75 27 3.0 3.0 0.00 0.00 0.00 42 1021.4
20260503201843 75 353 3.0 3.0 0.00 0.00 0.00 41 1021.5
20260503201339 75 64 1.0 4.0 0.00 0.00 0.00 43 1021.5
20260503200837 74 101 0.0 1.0 0.00 0.00 0.00 41 1021.7
20260503200332 75 131 0.0 2.0 0.00 0.00 0.00 41 1021.7
20260503195830 77 77 0.0 2.0 0.00 0.00 0.00 41 1021.9
20260503195326 75 93 0.0 1.0 0.00 0.00 0.00 44 1021.8
20260503194824 75 208 1.0 1.0 0.00 0.00 0.00 42 1021.9
20260503194320 75 99 0.0 2.0 0.00 0.00 0.00 42 1022.1
20260503193816 76 77 1.0 1.0 0.00 0.00 0.00 39 1022.2
20260503193312 77 252 1.0 7.0 0.00 0.00 0.00 41 1022.5
20260503192808 76 76 0.0 1.0 0.00 0.00 0.00 41 1022.4
20260503192305 76 127 1.0 2.0 0.00 0.00 0.00 42 1022.6
20260503191800 75 93 0.0 1.0 0.00 0.00 0.00 43 1022.5
20260503191257 74 120 0.0 1.0 0.00 0.00 0.00 41 1022.6
20260503190754 76 123 4.0 4.0 0.00 0.00 0.00 39 1022.8
20260503190251 76 40 1.0 3.0 0.00 0.00 0.00 37 1022.7
20260503185748 75 148 2.0 3.0 0.00 0.00 0.00 46 1022.9
20260503185244 76 129 1.0 1.0 0.00 0.00 0.00 42 1022.9
20260503184738 75 97 0.0 1.0 0.00 0.00 0.00 42 1023.0
20260503184235 75 78 2.0 4.0 0.00 0.00 0.00 41 1022.9
20260503183731 76 47 1.0 2.0 0.00 0.00 0.00 37 1023.0
20260503183229 75 76 1.0 2.0 0.00 0.00 0.00 44 1022.9
20260503182726 75 149 2.0 2.0 0.00 0.00 0.00 47 1023.2
20260503182225 74 24 3.0 7.0 0.00 0.00 0.00 39 1023.3
20260503181721 73 53 3.0 6.0 0.00 0.00 0.00 41 1023.5
20260503181219 75 35 1.0 1.0 0.00 0.00 0.00 44 1023.4
20260503180715 76 55 1.0 3.0 0.00 0.00 0.00 41 1023.3
20260503180213 75 108 1.0 3.0 0.00 0.00 0.00 39 1023.5
20260503175710 76 120 1.0 1.0 0.00 0.00 0.00 42 1023.5
20260503175208 76 76 1.0 2.0 0.00 0.00 0.00 44 1023.5
20260503174703 75 98 2.0 2.0 0.00 0.00 0.00 40 1023.6
20260503174201 78 136 1.0 1.0 0.00 0.00 0.00 36 1023.6
20260503173656 78 136 1.0 1.0 0.00 0.00 0.00 36 1023.7
20260503173153 77 94 0.0 0.0 0.00 0.00 0.00 38 1023.9
20260503172650 76 93 1.0 1.0 0.00 0.00 0.00 41 1023.9
20260503172147 75 90 1.0 2.0 0.00 0.00 0.00 39 1024.0
20260503171643 74 111 1.0 1.0 0.00 0.00 0.00 42 1024.1
20260503171141 75 116 2.0 3.0 0.00 0.00 0.00 38 1024.1
20260503170638 77 102 1.0 1.0 0.00 0.00 0.00 40 1024.2
20260503170134 76 117 1.0 1.0 0.00 0.00 0.00 42 1024.4
20260503150526 66 107 0.0 0.0 0.00 0.00 0.00 60 1025.0
20260503131419 48 352 0.0 0.0 0.00 0.00 0.00 99 1024.0
20260503130915 48 352 0.0 0.0 0.00 0.00 0.00 99 1024.1
20260503130413 48 352 0.0 0.0 0.00 0.00 0.00 99 1024.1
20260503110817 42 353 0.0 0.0 0.00 0.00 0.00 99 1022.8
20260503110314 43 353 0.0 0.0 0.00 0.00 0.00 99 1023.0
20260503100240 43 353 0.0 0.0 0.00 0.00 0.00 99 1022.6
20260503090206 44 353 0.0 0.0 0.00 0.00 0.00 99 1022.2
20260503081138 44 353 0.0 0.0 0.00 0.00 0.00 99 1021.7
20260503080634 44 353 0.0 0.0 0.00 0.00 0.00 99 1021.7
20260503080131 45 353 0.0 0.0 0.00 0.00 0.00 99 1021.5